Starlink 4473

operational
NORAD ID: 53660 Int'l Des: 2022-105 Owner: SPXS Country: US Constellation: starlink
LEOCIRCULARRETROGRADESSO

Über Starlink 4473

Beschreibung wird geladen...

Live-Position

3D-Globus wird geladen...

Nächste Überflüge

Höhenverlauf

Altitude vs Time

uPlot chart will show altitude changes over time

Zweizeiliger Elementsatz

1 53660U 22105N 26035.62982860 .00001316 00000-0 10698-3 0 9995
2 53660 97.6029 277.8368 0000560 221.8896 138.2286 15.01258727188277
Epoch: 4. Feb. 2026 • Age: 18 hours

Aktueller Status

Höhe 572.4 km
Geschwindigkeit 7.58 km/s
Subsatellitenpunkt 54.29°N, 1.94°W
Startdatum 31. Aug. 2022
Alter 3.4 years
Typ internet

Technische Details

Klassifizierung Payload
Masse 300.00 kg
Trockenmasse 290.00 kg
Gesamtmasse 300.00 kg
Länge 0.20 m
Durchmesser 2.80 m
Spannweite 9.00 m
Form Box + pan
Hersteller SPXS
Bus-Typ Starlink
Phasenstatus In Orbit
Besitzer/Staat SPXS/US

Große Konstellationen

Loading constellations...